JCSAT 2B (41471 NORAD) Tracking and Keplerian Element Data

This shows tracking and keplerian element data for the satellite.

Feedback or suggestion? Click here.




ElementValue
Catalog41471
NameJCSAT 2B
Epoch Orbit959
Epoch Day348.34171149
Epoch Year2018
RAAN11.0912
Inclination0.0176
Eccentricity0.0001846
Argument of Perigee252.3678
Mean Anonmoly96.533
Mean Motion1.00271074
Decay Rate-1.55E-06
L11 41471U 16028A 18348.34171149 -.00000155 00000-0 00000+0 0 9999
L22 41471 0.0176 11.0912 0001846 252.3678 96.5330 1.00271074 9590

Live tracking and technical data element details for JCSAT 2B (NORAD 41471). JCSAT 2B can be tracked NOW for your location showing map with azimuth and elevation plus other details from your city location.

Track the satellite on the map from your city or location and see movement details for azimuth, elevation, latitude, longitude, range, height, and movement on the map or in text.







IsCatalogInMostPopularTable: catalog: 41471, numindb: 88
Update: records affected: 1



GetName: 41471 JCSAT 2B

Hit Count: updated at: Sat, 15 Dec 2018 14:43:22 GMT